CZ-4C DEB, 44617

Orbit data source: Space-Track

CZ-4C DEB, 44617 is space debris in LEO originally from a launch on Tue, 10 Apr 2018 UTC launched from the Taiyaun Space Center, China (TSC). Debris objects in space refer to the collection of defunct objects orbiting the Earth. Examples of debris include non-operational satellites, rocket bodies, and fragments generated from explosions, collisions, or faulty payload assembly.

Loading next visibility...
Identifier
44617, 2018-034J
Orbit
LEO
Last TLE update
1 day ago
Origin
Manufacturer
Unknown
Mission
Spacecraft
Bus & Motor
Unknown
Mass
Unknown
Launch date (UTC)
2018-04-10 (7 years ago)
Launch vehicle
Unknown
Launch site
Taiyaun Space Center, China (TSC)
Object type
Payload
Rocket body
Debris
Shape & HBR
Unknown
Radar Cross Section
Small (<0.1 m²)

Expand to show TLE details & history

TLE from 1 day ago
0 CZ-4C DEB
1 44617U 18034J   25183.09645155 -.00000077  00000-0  19379-4 0  9990
2 44617  63.4007 323.7435 0221272   6.5753 353.8091 13.40988145347290
Epoch: 2025-07-02T02:18Z
TLE epoch observation values (Epoch: 2025-07-02T02:18:53.413Z)
Latitude
-0.00003°
Longitude
8.63847°
Altitude
942.763 km
Speed
7.462 km/s
True Right ascension
21h 34m 58s
True Declination
0° 00' 00"
Sunlit
Object was in full shadow at epoch
Visualization orbit readout
Latitude
-29.88966°
Longitude
-11.78639°
Altitude
987.631 km
Speed
7.42 km/s
Apparent Right ascension
17h 32m 44s
Apparent Declination
-45° 41' 48"
Sunlit
Object is in full shadow
Visualization observer readout
Local Sidereal Time
01:43:48
Azimuth
242.455° WSW
Elevation
-48.517°
Doppler factor
1
Orbital elements
Apogee altitude
1,270 km
Perigee altitude
938.863 km
Semi-major axis
7,482.569 km
Eccentricity
0.02213
Inclination
63.4007°
RAAN
323.7435°
Arg. of periapsis
6.5753°
True anomaly
Unknown
Mean anomaly
353.8091°
Eccentric anomaly
Unknown
Mean motion
3.35326 °/min
Orbital period
107.36 mins
BSTAR
0.000019379
Loading maneuver chart data...
Loading SW <> Apogee altitude chart data...
Loading historical data...
Loading historical data...
Loading historical data...
Loading historical data...
Loading historical data...
Loading historical data...
Loading historical data...

CZ-4C DEB Visibility forecast

Observer location: undefined°, undefined°

Span
Click to sort rows by Start time (UTC) header in descending order
Start Az.
Max El. time (UTC)
Max El. Az.
Max El.
End time (UTC)
End Az.
11 mins2025-07-03 18:11:53.933Z347.238° N2025-07-03 18:16:53.933Z39.408° NE26.436°2025-07-03 18:22:53.933Z97.068° ESE
13 mins2025-07-03 20:02:53.933Z320.336° NNW2025-07-03 20:08:53.933Z219.966° SW43.448°2025-07-03 20:15:53.933Z157.866° S
4 mins2025-07-03 21:56:53.933Z268.787° W2025-07-03 21:58:53.933Z252.305° W12.643°2025-07-03 22:00:53.933Z236.491° WSW
10 mins2025-07-04 09:54:53.933Z169.883° S2025-07-04 09:58:53.933Z120.858° SE28.955°2025-07-04 10:04:53.933Z51.107° ENE
10 mins2025-07-04 11:45:53.933Z249.613° W2025-07-04 11:49:53.933Z310.017° NW34.665°2025-07-04 11:55:53.933Z22.865° NE
|